User: anonymous   Login
Location: Innsbruck
(47.2657°N, 11.3914°E)
Time: 04:59:37
(UTC+01:00)
Language:

CUTE 1.7 + AOD 2 - Orbit

View from above orbital plane
View from above orbital plane
View from above satellite
View from above satellite

Ground track
Ground track

The orbit data is extracted from the following two-line orbital elements,

1 32785U 08021C   21339.44748265  .00000539  00000-0  63015-4 0  9990
2 32785  97.6329 311.8654 0013526 150.6323 209.5658 14.88916808737687
Epoch (UTC): 05 December 2021 10:44:22
Eccentricity: 0.0013526
inclination: 97.6329°
perigee height: 592 km
apogee height: 611 km
right ascension of ascending node: 311.8654°
argument of perigee: 150.6323°
revolutions per day: 14.88916808
mean anomaly at epoch: 209.5658°
orbit number at epoch: 73768

The dashed part of the orbit path shows where the satellite is in the earth's shadow,  

DLR